Время (UTC), дата Ветер
(°,м/с) 
Видим.   Явления Облачность Т
(°С)
Тd
(°С)
f(%) Тe
(°С)
Pmin
(гПа)
dP
(гПа)
Po
(мм)
O2
(г/м3)
Тmin Tmax R s Состояние
почвы
00 12.02.15 280 (З) 10 км    10/10 480 м 
[Sc]
-2.7 -4.3 89 -4  1016.5  751  306           
03 12.02.15 280 (З) 10 км  слаб. снег  10/10 500 м 
[Sc]
-2.2 -3.7 89 -3  1018.3  1.8  752  306  -5    0.0  60  равномерный
сухой снег
100% 
06 12.02.15 280 (З) 10 км  {снег}  10/10 630 м 
[Sc]
-1.5 -3.3 88 -2  1018.9  0.6  753  305           
09 12.02.15 270 (З) 10 км    10/10 300 м 
[St]
-1.9 -4 86 -5  1019.2  0.3  753  306           
12 12.02.15 270 (З) 10 км    10/10 240 м 
[St]
-1.9 -3.7 88 -4  1018.6  -0.6  753  306           
15 12.02.15 250 (З) 10 км    10/10 210 м 
[St]
-2.1 -3.7 89 -5  1018.4  -0.3  752  306    -0.9  0.0     
18 12.02.15 240 (ЮЗ) 10 км    10/10 210 м 
[St]
-3 -4.3 91 -6  1017.3  -1  752  307           
21 12.02.15 250 (З) 10 км    10/10 270 м 
[St]
-3.5 -4.8 91 -6  1016.1  -1.2  751  307           
00 13.02.15 250 (З) 10 км    10/10 240 м 
[St]
-3.3 -4.5 91 -5  1015  -1.1  750  306           
03 13.02.15 260 (З) 10 км  в посл. час снег  10/10 180 м 
[Frnb]
-2.2 -3.9 88 -3  1015  750  305  -3.6    0.0  60  равномерный
сухой снег
100% 
06 13.02.15 280 (З) 10 км  слаб. дождь со снегом [диам. гололёда 0 мм]  10/10 210 м 
[Frnb|Ns]
-1.7 -3.1 90 -4  1015.8  0.8  751  305           
09 13.02.15 280 (З) 10 км  {снег, дождь} [диам. гололёда 1 мм]  10/10 600 м 
[Sc]
-0.3 -2.4 86 -2  1016.9  1.2  751  303           
12 13.02.15 290 (З) 10 км  {снег, дождь} [диам. гололёда 1 мм]  10/10 750 м 
[Sc]
+0.6 -2.9 77 1018.6  1.7  753  303           
15 13.02.15 280 (З) 10 км    6/5 1000 м средняя 
[Sc|Ac lent]
-0.3 -4.1 75 1020.9  2.2  754  305    +0.8  0.0     
18 13.02.15 280 (З) 10 км    ясно 
-2.6 -5.1 83 -2  1022.9  1.9  756  308           
21 13.02.15 290 (З) 10 км    ясно 
-3.6 -5.5 87 -5  1024  757  310           
00 14.02.15 300 (СЗ) 10 км    ясно 
-5.3 -6.7 90 -5  1024.4  0.3  757  312           
03 14.02.15 тихо ()   10 км    ясно 
-7.4 -8.5 92 -7  1025.5  758  315  -7.6      59  равномерный
сухой снег
100% 
06 14.02.15 260 (З) 10 км    ясно 
-7.4 -8.5 92 -7  1025.5  1.1  758  315  -8.1         
09 14.02.15 280 (З) 10 км    ясно 
-3 -6.8 75 -4  1026.2  -0.2  758  310           
12 14.02.15 //0 (С) //  10 км    ясно 
-1.3 -5.7 72 -1  1025.1  -1  757  307           
15 14.02.15 тихо ()   10 км    9/9 800 м 
[Sc]
-3.9 -6.1 85 -4  1024.6  -0.6  757  310    -0.8       
18 14.02.15 270 (З) 10 км    10/10 800 м 
[Sc]
-4 -5.5 89 -4  1023  -1.7  756  310           
21 14.02.15 290 (З) 10 км    10/10 870 м 
[Sc]
-3.7 -7 78 -5  1021.5  -1.3  755  309           
00 15.02.15 280 (З) 10 км    10/10 480 м 
[Sc]
-3.6 -6.5 80 -5  1018.2  -3.3  752  308           
03 15.02.15 260 (З) 10 км  слаб. снег  10/10 420 м 
[Frnb|Ns]
-3.4 -6.6 79 -6  1016  -2.2  751  307  -4.5    0.0  59  равномерный
сухой снег
100% 
06 15.02.15 260 (З) 4000 м  слаб. ливневой снег{дождь} [диам. гололёда 1 мм]  10/6 600 м кучево-дожд., верхняя 
[Cb cap|Ci ing]
-4.8 -7.2 83 -6  1015.3  -0.7  750  308           
09 15.02.15 300 (СЗ) 4000 м  слаб. снег{ливн. осадки} [диам. гололёда 1 мм]  10/8 500 м средняя 
[Frnb|As op]
-3.2 -5.4 85 -5  1013.8  -1.5  749  306           
12 15.02.15 280 (З) 4000 м  слаб. снег{ливн. осадки}  10/5 600 м средняя 
[Sc|As op]
-3.5 -4.9 90 -5  1013  -0.5  748  306           
15 15.02.15 270 (З) 10 км  слаб. снег  10/6 600 м средняя 
[Sc|As op]
-4.2 -5.4 91 -5    -0.1  748  307    -1.5  0.2     
18 15.02.15 280 (З) 1000 м  сильн. снег  10/10 180 м 
[Frnb|Ns]
-4 -4.5 96 -4  1012.9  0.1  748  306           
21 15.02.15 010 (С) 4{10}  1000 м  сильн. снег  10/10 180 м 
[Frnb|Ns]
-7.2 -9.7 82 -11  1015.9  2.8  750  312           
00 16.02.15 030 (СВ) 3{14}  10 км  позёмок{снег}  10/10 720 м 
[Frnb|Ns]
-8.2 -11.9 75 -11  1019.4  3.4  753  314           
03 16.02.15 350 (С) 4{11}  10 км  позёмок  1/0 600 м верхняя 
[Ci fib]
-9.8 -14 71 -14  1022.5  755  317  -9.8    59  равномерный
сухой снег
100% 
06 16.02.15 360 (С) 10 км  позёмок  ясно 
-10.9 -14.5 75 -14  1025.2  2.5  757  319  -10.9         
09 16.02.15 340 (С) 3{10}  10 км    ясно 
-10.1 -14.5 70 -13  1026.5  1.4  758  318           
12 16.02.15 360 (С) 10 км    ясно 
-9.2 -21.4 36 -12  1027.2  0.7  759  318           
15 16.02.15 340 (С) 10 км    ясно 
-10.1 -17.4 55 -13  1028.6  1.4  760  319    -8.6       
18 16.02.15 350 (С) 10 км    ясно 
-12.2 -15.8 75 -14  1030.6  1.8  761  322           
21 16.02.15 340 (С) 10 км    ясно 
-13.3 -16.1 79 -15  1031.6  0.8  762  324           
00 17.02.15 360 (С) 10 км    ясно 
-14.4 -16.6 83 -17  1032.5  0.8  762  326           
03 17.02.15 360 (С) 10 км  [диам. изморози 0 мм]  ясно 
-15.6 -17.5 85 -16  1033.9  1.3  763  328  -15.9      59  равномерный
сухой снег
100% 
06 17.02.15 330 (СЗ) 1000 м    1/0 верхняя 
[Ci fib]
-15.2 -17.2 85 -17  1035.2  1.3  764  328  -16.1         
09 17.02.15 330 (СЗ) 10 км  [диам. изморози 1 мм]  ясно 
-10.4 -15 69 -12  1035.4  0.5  765  322           
12 17.02.15 300 (СЗ) 10 км    ясно 
-9.2 -15 63 -9  1035.6  0.3  765  320           
15 17.02.15 150 (ЮВ) 10 км    ясно 
-12.7 -16.4 74 -13  1035.6  -0.2  765  325    -7.7       
18 17.02.15 160 (Ю) 10 км    ясно 
-14.3 -17.1 79 -14  1035.1  -0.6  764  326           
21 17.02.15 160 (Ю) 10 км    ясно 
-15.8 -18.4 80 -16  1034.4  -0.8  764  328           
00 18.02.15 150 (ЮВ) 10 км    ясно 
-17.8 -20 83 -18  1033.3  -1.2  763  330           
03 18.02.15 160 (Ю) 10 км    ясно 
-18 -20.2 83 -18  1031.6  -1.7  761  330  -18.3      59  равномерный
сухой снег
100% 
06 18.02.15 200 (Ю) 10 км    ясно 
-15.7 -18.4 80 -16  1030.3  -1.1  761  327  -19         
09 18.02.15 230 (ЮЗ) 10 км    ясно 
-11.1 -17 62 -11  1028.6  -1.4  760  320           
12 18.02.15 150 (ЮВ) 10 км    ясно 
-11.7 -18.1 59 -14  1026.4  -2.2  758  321           
15 18.02.15 150 (ЮВ) 10 км    ясно 
-13.8 -18.1 70 -14  1024.1  -2.4  756  322    -8.7       
18 18.02.15 160 (Ю) 10 км    ясно 
-13.8 -18.6 67 -16  1021.9  755  322           
21 18.02.15 140 (ЮВ) 10 км    ясно 
-14.5 -19.3 67 -17  1019.9  -2  753  322           
00 19.02.15 140 (ЮВ) 10 км    ясно 
-16 -19.9 72 -18  1018.6  -1.4  752  323           
03 19.02.15 130 (ЮВ) 10 км    4/0 верхняя 
[Ci fib]
-17.9 -21 77 -20  1017.6  -1  751  326  -17.9      59  равномерный
сухой снег
100% 
06 19.02.15 140 (ЮВ) 10 км    3/0 верхняя 
[Ci fib]
-17 -20.5 74 -19  1017.7  -0.1  751  324  -18.3         
09 19.02.15 170 (Ю) 10 км    4/0 верхняя 
[Ci fib]
-12.4 -19.3 56 -12  1017.7  0.3  752  319           
12 19.02.15 180 (Ю) 10 км    3/0 верхняя 
[Ci sp]
-11.3 -18.6 55 -11  1017.4  -0.3  751  317           
15 19.02.15 170 (Ю) 10 км    ясно 
-14.7 -19.6 66 -15  1018.3  0.6  752  322    -11.3       
18 19.02.15 тихо ()   10 км    ясно 
-15.9 -20.1 70 -16  1018.4  752  323           
21 19.02.15 140 (ЮВ) 10 км    ясно 
-17.4 -20.3 78 -18  1017.9  -0.5  751  325           
00 20.02.15 тихо ()   10 км    3/3 1000 м 
[Sc]
-18.8 -21.2 81 -19  1017.9  0.1  751  327           
03 20.02.15 150 (ЮВ) 10 км    ясно 
-19.2 -21.7 81 -19  1016.9  -1  751  327  -19.5      59  равномерный
сухой снег
100% 
06 20.02.15 150 (ЮВ) 0500 м  туман  10/10 120 м 
[St]
-15 -16.9 85 -15  1016.3  -0.3  750  321           
09 20.02.15 160 (Ю) 10 км  {туман} [диам. изморози 1 мм]  10/0 средняя 
[Ac As]
-8.6 -11.3 81 -8  1013.8  -2  749  313           
12 20.02.15 230 (ЮЗ) 10 км  {туман} [диам. изморози 1 мм]  10/0 средняя 
[As op]
-4.3 -8.5 73 -6  1011.8  -1.7  747  307           
15 20.02.15 230 (ЮЗ) 4{10}  4000 м  слаб. снег  10/10 180 м 
[Frnb|Ns]
-3.8 -7.1 78 -7  1010.3  -1.4  746  306    -3.6  0.0     
18 20.02.15 250 (З) 3{10}  2000 м  снег  10/10 210 м 
[Frnb|Ns]
-3.3 -4.9 89 -5  1010  -0.3  746  305           
21 20.02.15 280 (З) 10 км  снег  10/9 300 м средняя 
[Frnb|As op]
-2.2 -4.4 85 -3  1009.6  -0.3  746  303           
00 21.02.15 280 (З) 10 км    10/8 400 м средняя 
[Frnb|As op]
-2 -3.5 90 -3  1010.1  0.5  746  303           
03 21.02.15 230 (ЮЗ) 10 км    10/10 270 м 
[Frnb]
-1.9 -3.4 89 -4  1010.2  0.1  746  303  -3.8    0.2  58  равномерный
сухой снег
100% 
06 21.02.15 230 (ЮЗ) 10 км  морось  10/10 270 м 
[Frnb]
-1.8 -2.9 92 -5  1011  0.8  747  303  -2.2         
09 21.02.15 230 (ЮЗ) 10 км  слаб. снег{морось}  10/8 420 м средняя 
[Sc diur, vesp|As op]
-0.9 -2.2 91 -3  1010.8  -0.2  747  302           
12 21.02.15 260 (З) 4000 м  слаб. снег{морось}  10/8 300 м средняя 
[Frnb|As op]
-0.2 -1.1 94 -2  1011.3  0.6  747  301           
15 21.02.15 300 (СЗ) 10 км  {снег}  10/6 450 м средняя 
[Sc|Ac lent]
+0.6 -2.2 82 1012.8  1.5  748  301    +0.6       
18 21.02.15 260 (З) 10 км  {снег}  10/10 570 м 
[Sc]
+0.7 -1.9 83 1014.7  1.9  750  302           
21 21.02.15 260 (З) 10 км    10/10 1020 м 
[Sc]
-0.8 -2.4 89 -2  1016.3  1.5  751  304           
00 22.02.15 190 (Ю) 10 км    9/0 средняя 
[Ac lent]
-3.5 -4.6 92 -3  1018.1  1.6  752  308           
03 22.02.15 270 (З) 4000 м  дымка  10/10 150 м 
[St]
-2.8 -3.5 95 -2  1019.3  1.2  753  307  -3.7      58  равномерный
сухой снег
100% 
06 22.02.15 270 (З) 2000 м  дымка  10/10 150 м 
[St]
-1.2 -1.9 95 -4  1021.2  755  306           
09 22.02.15 260 (З) 4000 м  дымка  10/10 330 м 
[St]
-0.2 -1.9 88 -2  1021  -0.1  755  304           
12 22.02.15 150 (ЮВ) 4000 м  слаб. морось  10/10 300 м 
[St]
+0.9 +0.4 96 +2  1020.3  -0.7  754  303           
15 22.02.15 150 (ЮВ) 4000 м  дымка{морось}  10/0 средняя 
[As op]
+1.5 +0.8 95 +2  1020.7  0.5  754  302    +1.7  0.0     
18 22.02.15 тихо ()   10 км  {морось}  10/0 средняя 
[As op]
+1.5 -2.6 74 +2  1020.7  -0.2  754  303           
21 22.02.15 240 (ЮЗ) 10 км    10/0 средняя 
[Ac lent]
+2 -8.6 45 +1  1020.4  -0.1  754  303           
00 23.02.15 320 (СЗ) 10 км    10/0 средняя 
[Ac lent]
-0.8 -7.8 59 -2  1002.8  2.1  756  306           
03 23.02.15 230 (ЮЗ) 10 км    10/0 средняя 
[Ac lent]
-0.5 -3.6 79 1023.6  0.8  756  306  -0.8      58  равномерный
сухой снег
100% 
06 23.02.15 230 (ЮЗ) 10 км    8/0 средняя, верхняя 
[Ac lent|Ci fib]
-0.1 -5.8 66 +1  1023.4  -0.1  756  305           
09 23.02.15 270 (З) 10 км    10/0 верхняя 
[Ci fib]
+2.6 -2.9 67 +2  1023  -0.3  756  302           
12 23.02.15 240 (ЮЗ) 10 км    10/0 средняя 
[Ac lent]
+2.4 -3.2 67 +2  1022.9  -0.1  756  302           
15 23.02.15 260 (З) 10 км    10/0 средняя 
[Ac lent]
-1.4 -2.4 93 -2  1023.6  0.6  756  307    -1.2       
18 23.02.15 290 (З) 4000 м  слаб. дождь со снегом  10/10 700 м 
[Ns]
+1.8 -1.3 80 1024.6  1.1  757  303           
21 23.02.15 240 (ЮЗ) 10 км  {снег, дождь}  10/10 660 м 
[Sc]
+2 -1.7 76 +3  1026.1  1.5  758  304           
00 24.02.15 290 (З) 10 км  {снег, дождь}  10/10 840 м 
[Sc]
+1.8 -1 82 +3  1028.1  760  304           
03 24.02.15 тихо ()   10 км    10/10 540 м 
[Sc]
+1.4 -0.8 85 +1  1029.7  1.6  761  305  +0.8    0.0  56  равномерный
мокрый или
старый снег
100% 
06 24.02.15 170 (Ю) 10 км    3/0 средняя 
[Ac lent]
+1.7 -0.8 83 +2  1031  1.3  762  305           
09 24.02.15 140 (ЮВ) 10 км    9/9 500 м 
[Sc]
+2.8 -1.4 74 +2  1031.2  0.1  762  304           
12 24.02.15 160 (Ю) 10 км    4/0 средняя 
[Ac lent]
+2.5 -4.8 59 +2  1031.9  0.7  763  305           
15 24.02.15 150 (ЮВ) 10 км    5/0 средняя, верхняя 
[Ac lent|Ci fib]
+0.3 -6.1 62 +1  1032.1  0.1  763  308    +3.7       
18 24.02.15 130 (ЮВ) 10 км    5/0 верхняя 
[Cs]
-1.4 -7.3 64 -1  1032.6  0.4  763  310           
21 24.02.15 150 (ЮВ) 10 км    4/0 верхняя 
[Cs]
-2.1 -8 64 -2  1033.4  0.7  764  311           
00 25.02.15 120 (ЮВ) 10 км    ясно 
-3.8 -8.7 69 -3  1034.2  0.7  764  313           
03 25.02.15 150 (ЮВ) 10 км    3/0 верхняя 
[Ci fib]
-4.5 -9.3 69 -6  1035.1  0.9  765  314  -4.8      54  равномерный
мокрый или
старый снег
100% 
06 25.02.15 150 (ЮВ) 10 км    10/0 верхняя 
[Ci sp]
-2.8 -9.3 61 -4  1036.1  765  313  -4.8         
09 25.02.15 160 (Ю) 10 км    10/0 верхняя 
[Ci sp]
+2.3 -7.7 48 +3  1036.1  0.2  766  307           
12 25.02.15 150 (ЮВ) 10 км    10/0 верхняя 
[Ci sp]
+4.3 -6 47 +5  1036  0.1  766  304           
15 25.02.15 120 (ЮВ) 10 км    10/0 верхняя 
[Ci sp]
+0.4 -6.6 59 +1  1036.8  0.6  766  309    +5.2       
18 25.02.15 120 (ЮВ) 10 км    ясно 
-2.1 -7.5 66 -2  1037.1  0.2  766  312           
21 25.02.15 140 (ЮВ) 10 км    4/0 верхняя 
[Ci fib]
-2.5 -7.4 69 -2  1038  0.8  767  313           
00 26.02.15 140 (ЮВ) 10 км    4/0 верхняя 
[Ci fib]
-4.8 -8.6 75 -6  1038.9  0.8  767  316           
03 26.02.15 140 (ЮВ) 10 км    4/0 верхняя 
[Ci fib]
-6.6 -8.6 86 -9  1038.7  -0.3  767  318  -6.7      54  равномерный
мокрый или
старый снег
100% 
06 26.02.15 150 (ЮВ) 4000 м  дымка  6/0 верхняя 
[Ci fib]
-5.4 -7.5 85 -7  1038.8  0.2  767  316  -7.1         
09 26.02.15 140 (ЮВ) 10 км    4/0 верхняя 
[Ci fib]
-2.1 -6.6 71 -3  1039.3  0.7  768  313           
12 26.02.15 140 (ЮВ) 10 км    5/0 верхняя 
[Ci fib]
-1.3 -6.1 70 -2  1038.1  -1.1  767  311           
15 26.02.15 160 (Ю) 10 км    3/0 верхняя 
[Ci fib]
-2.8 -6.5 76 -4  1037.6  -0.6  767  313    -0.3       
18 26.02.15 170 (Ю) 10 км    ясно 
-4.1 -7 80 -4  1036.9  -0.7  766  314           
21 26.02.15 170 (Ю) 10 км    ясно 
-6 -8.4 83 -7  1036  -1.1  765  316           
00 27.02.15 150 (ЮВ) 10 км    6/0 верхняя 
[Ci fib]
-7.5 -9.3 87 -9  1035.9  0.1  765  318           
03 27.02.15 140 (ЮВ) 10 км    8/0 верхняя 
[Ci fib]
-9.3 -10.6 90 -11  1035.4  -0.6  765  320  -9.3      54  равномерный
мокрый или
старый снег
100% 
06 27.02.15 180 (Ю) 4000 м  слаб. снег  10/10 450 м 
[Frnb|Ns]
-8.3 -9.8 89 -10  1035.3  765  319  -9.8         
09 27.02.15 160 (Ю) 10 км  слаб. снег  10/0 средняя 
[As op]
-6.7 -8.8 85 -8  1034.8  -0.3  764  317           
12 27.02.15 160 (Ю) 10 км  слаб. снег  10/8 360 м средняя 
[Frnb|As op]
-5.1 -7.2 85 -6  1034.5  -0.3  764  315           
15 27.02.15 140 (ЮВ) 10 км  {снег}  10/8 300 м средняя 
[Frnb|As op]
-5.2 -6.8 88 -7  1034.1  -0.4  764  315    -5  0.0     
18 27.02.15 150 (ЮВ) 4000 м  слаб. снег  10/10 210 м 
[Frnb|Ns]
-5 -6.1 92 -6  1033.4  -0.7  763  314           
21 27.02.15 150 (ЮВ) 4000 м  дымка{снег}  10/10 210 м 
[Frnb]
-4.9 -6 92 -4  1033.3  0.1  763  314           
00 28.02.15 140 (ЮВ) 10 км  {снег}  10/10 210 м 
[St]
-5.2 -6.2 93 -7  1032.6  -0.7  763  314           
03 28.02.15 150 (ЮВ) 10 км  {снег}  10/10 210 м 
[St]
-5 -6 93 -6  1032.2  -0.4  763  314  -5.4    0.0  53  равномерный
мокрый или
старый снег
100% 
06 28.02.15 130 (ЮВ) 4000 м  дымка{снег}  10/10 180 м 
[St]
-4.6 -5.8 91 -6  1032  -0.2  762  313           
09 28.02.15 160 (Ю) 4000 м  дымка{снег}  10/10 240 м 
[St]
-5 -6.4 90 -6  1032  762  314           
12 28.02.15 140 (ЮВ) 10 км  {снег}  5/0 верхняя 
[Ci fib]
-4.2 -8.3 73 -6  1031.3  -0.6  762  313           
15 28.02.15 130 (ЮВ) 10 км    8/0 верхняя 
[Cs]
-6.7 -9 84 -6  1031.2  -0.3  762  316    -3.5  0.0     
18 28.02.15 130 (ЮВ) 4000 м  дымка  10/0 средняя, верхняя 
[Ac lent|Ci sp]
-7.2 -8.8 88 -7  1030.8  -0.4  761  316           
21 28.02.15 140 (ЮВ) 10 км    10/0 верхняя 
[Ci sp]
-9.3 -10.8 89 -11  1030.4  -0.5  761  319           
00 01.03.15 170 (Ю) н/о    н/о 
-9.9 -11.4 89 -10  1030.6  0.1  761  319           
03 01.03.15 110 (В) 10 км    10/0 верхняя 
[Ci sp]
-10 -11.4 90 -10  1030.6  0.1  761  319  -10      53  равномерный
мокрый или
старый снег
100% 
06 01.03.15 130 (ЮВ) 4000 м  в посл. час морось{снег}  10/0 верхняя 
[Cs]
-8.8 -10.1 90 -10  1030.3  0.1  761  318           
Время (UTC), дата Ветер
(°,м/с) 
Видим.   Явления Облачность Т
(°С)
Тd
(°С)
f(%) Тe
(°С)
Pmin
(гПа)
dP
(гПа)
Po
(мм)
O2
(г/м3)
Тmin Tmax R s Состояние
почвы